Location: Brusselsch Zeekanaal
(50.8667°N, 4.3667°E)
Time: 03:06:06
(UTC+00:00)

ACS3 Solar Sail - Pass Details

Date: 02 February 2026
Orbit: 899 x 968 km, 97.2° (Epoch: 14 February)

Event Time Altitude Azimuth Distance (km) Brightness Sun altitude
Rises 03:27:56 0° 6° (N) 3,598 5.1 -36.1°
Reaches altitude 10° 03:30:42 10° 356° (N) 2,639 4.2 -35.6°
Enters shadow 03:30:55 11° 354° (N) 2,570 4.1 -35.6°
